User: anonymous   Login
Location: *
(50.0228°S, 177.2688°W)
Time: 21:11:31
(UTC+00:00)
Language:

Cosmos 332 Rocket - Orbit

View from above orbital plane
View from above orbital plane
View from above satellite
View from above satellite

Ground track
Ground track

The orbit data is extracted from the following two-line orbital elements,

1  4370U 70028B   20185.20668062  .00000044  00000-0  15433-4 0  9995
2  4370  74.0394 127.9124 0014572 126.1546 234.0971 14.60046774174268
Epoch (UTC): 03 July 2020 04:57:37
Eccentricity: 0.0014572
inclination: 74.0394°
perigee height: 683 km
apogee height: 703 km
right ascension of ascending node: 127.9124°
argument of perigee: 126.1546°
revolutions per day: 14.60046774
mean anomaly at epoch: 234.0971°
orbit number at epoch: 17426

The dashed part of the orbit path shows where the satellite is in the earth's shadow,  

DLR